KA8CNI Weather Reports


Display with metric or nautical units.
time (UTC)temp
F
wind
direction
speed
MPH
gust
MPH
rain 1hr
in
rain 24hr
in
rain mn
in
humidity
%
barometer
mb
20260506121605 45 338 3.0 0.0 0.00 0.00 0.28 98 1007.0
20260506120012 45 307 2.0 0.0 0.00 0.00 0.28 98 1006.9
20260506114529 45 298 4.0 0.0 0.00 0.00 0.28 98 1006.9
20260506113058 45 298 1.0 0.0 0.00 0.00 0.28 98 1006.8
20260506111623 45 292 0.0 0.0 0.00 0.00 0.28 98 1006.4
20260506110002 45 294 2.0 0.0 0.00 0.00 0.28 98 1006.1
20260506104520 45 298 4.0 0.0 0.00 0.00 0.28 98 1006.4
20260506103046 45 294 5.0 0.0 0.00 0.00 0.28 98 1006.1
20260506101529 45 333 1.0 0.0 0.00 0.00 0.28 98 1005.6
20260506100035 45 24 0.0 0.0 0.00 0.00 0.28 99 1005.2
20260506094534 45 27 0.0 0.0 0.00 0.00 0.28 99 1004.6
20260506093033 45 319 1.0 0.0 0.00 0.00 0.28 99 1005.4
20260506091527 45 294 2.0 0.0 0.00 0.00 0.28 99 1005.9
20260506090021 46 296 1.0 0.0 0.00 0.00 0.28 99 1005.9
20260506084522 46 313 0.0 0.0 0.00 0.00 0.27 99 1005.6
20260506083018 46 311 0.0 0.0 0.00 0.00 0.27 99 1005.4
20260506081517 46 312 0.0 0.0 0.00 0.00 0.26 99 1005.4
20260506073013 45 320 0.0 0.0 0.00 0.00 0.24 98 1005.5
20260506071514 45 316 0.0 0.0 0.00 0.00 0.22 98 1005.3
20260506061511 46 348 0.0 0.0 0.00 0.00 0.13 98 1005.1
20260506044613 48 15 1.0 0.0 0.00 0.00 0.03 99 1005.2
20260506043056 49 350 0.0 0.0 0.00 0.00 0.02 99 1005.3
20260506041556 49 342 0.0 0.0 0.00 0.00 0.01 99 1005.3
20260506040053 49 336 0.0 0.0 0.00 0.00 0.00 99 1005.4
20260506034552 49 5 1.0 0.0 0.00 0.00 0.82 99 1005.7
20260506033051 49 34 0.0 0.0 0.00 0.00 0.81 99 1005.9
20260506031556 49 334 0.0 0.0 0.00 0.00 0.79 98 1006.1
20260506030048 50 360 0.0 0.0 0.00 0.00 0.78 99 1006.2
20260506024557 50 5 0.0 0.0 0.00 0.00 0.77 99 1006.2
20260506023047 50 9 0.0 0.0 0.00 0.00 0.74 99 1006.3
20260506021544 50 12 0.0 0.0 0.00 0.00 0.72 98 1006.0
20260506020044 50 300 1.0 0.0 0.00 0.00 0.70 98 1006.0
20260506014544 50 36 0.0 0.0 0.00 0.00 0.68 98 1005.4
20260506013041 50 45 0.0 0.0 0.00 0.00 0.66 98 1005.2
20260506011539 50 40 0.0 0.0 0.00 0.00 0.62 98 1005.1
20260506010037 51 323 1.0 0.0 0.00 0.00 0.56 98 1005.2
20260506004535 51 317 2.0 0.0 0.00 0.00 0.52 98 1005.0
20260506003038 51 85 3.0 0.0 0.00 0.00 0.45 98 1004.7
20260506001538 51 30 0.0 0.0 0.00 0.00 0.43 98 1004.4
20260506000032 51 30 0.0 0.0 0.00 0.00 0.39 97 1004.5
20260505234534 52 53 0.0 0.0 0.00 0.00 0.36 97 1004.5
20260505233026 53 56 0.0 0.0 0.00 0.00 0.34 97 1004.6
20260505231524 54 323 1.0 0.0 0.00 0.00 0.34 97 1004.5
20260505230042 56 340 3.0 0.0 0.00 0.00 0.32 97 1004.6
20260505224518 57 292 3.0 0.0 0.00 0.00 0.30 97 1004.7
20260505223016 57 289 6.0 0.0 0.00 0.00 0.24 97 1004.7
20260505221515 58 289 6.0 0.0 0.00 0.00 0.16 96 1004.7
20260505220013 59 325 0.0 0.0 0.00 0.00 0.10 96 1004.2
20260505214513 59 325 1.0 0.0 0.00 0.00 0.10 96 1004.1
20260505213012 58 284 5.0 0.0 0.00 0.00 0.10 96 1004.2
20260505211514 58 267 1.0 0.0 0.00 0.00 0.10 96 1004.2
20260505210014 58 278 6.0 0.0 0.00 0.00 0.09 96 1004.3
20260505204510 59 282 5.0 0.0 0.00 0.00 0.09 96 1004.3
20260505203010 59 265 7.0 0.0 0.00 0.00 0.08 94 1004.6
20260505201512 60 281 6.0 0.0 0.00 0.00 0.04 94 1004.5
20260505200007 60 248 5.0 0.0 0.00 0.00 0.04 93 1004.3
20260505194506 60 275 6.0 0.0 0.00 0.00 0.02 92 1004.5
20260505193005 61 287 7.0 0.0 0.00 0.00 0.02 91 1004.6
20260505191506 62 284 8.0 0.0 0.00 0.00 0.02 87 1004.6
20260505190009 63 310 6.0 0.0 0.00 0.00 0.02 82 1004.5
20260505184503 64 260 8.0 0.0 0.00 0.00 0.02 81 1004.5
20260505183003 64 252 7.0 0.0 0.00 0.00 0.02 80 1004.7
20260505181503 64 250 9.0 0.0 0.00 0.00 0.02 80 1004.7
20260505180001 64 229 11.0 0.0 0.00 0.00 0.02 79 1004.6
20260505174612 65 256 10.0 0.0 0.00 0.00 0.02 77 1004.5
20260505173100 64 261 13.0 0.0 0.00 0.00 0.02 78 1004.5
20260505171600 65 263 15.0 0.0 0.00 0.00 0.02 77 1004.6
20260505170059 65 267 15.0 0.0 0.00 0.00 0.02 76 1004.6
20260505164558 65 261 17.0 0.0 0.00 0.00 0.02 75 1004.6
20260505163058 66 276 15.0 0.0 0.00 0.00 0.02 73 1004.5
20260505161558 65 261 16.0 0.0 0.00 0.00 0.02 73 1004.4
20260505153051 67 260 16.0 0.0 0.00 0.00 0.02 70 1003.7
20260505151551 67 261 14.0 0.0 0.00 0.00 0.02 71 1003.5
20260505124546 60 223 8.0 0.0 0.00 0.00 0.02 84 1003.5
20260505123043 60 230 10.0 0.0 0.00 0.00 0.02 83 1003.2